| time (UTC) | temp F | wind direction | speed MPH | gust MPH | rain 1hr in | rain 24hr in | rain mn in | humidity % | barometer mb |
| 20260903094549 | 56 | 163 | 2.0 | 11.0 | 0.16 | 0.75 | 0.18 | 93 | 1008.5 |
| 20260903093059 | 56 | 180 | 4.0 | 11.0 | 0.13 | 0.72 | 0.15 | 93 | 1008.8 |
| 20260903091552 | 57 | 0 | 1.0 | 5.0 | 0.06 | 0.64 | 0.07 | 93 | 1008.6 |
| 20260903090048 | 57 | 202 | 0.0 | 5.0 | 0.06 | 0.64 | 0.07 | 93 | 1008.5 |
| 20260903084557 | 57 | 0 | 0.0 | 4.0 | 0.01 | 0.58 | 0.02 | 93 | 1008.3 |
| 20260903083057 | 57 | 0 | 0.0 | 2.0 | 0.01 | 0.58 | 0.02 | 92 | 1008.5 |
| 20260903081606 | 57 | 153 | 1.0 | 4.0 | 0.01 | 0.58 | 0.01 | 92 | 1008.6 |
| 20260903080049 | 57 | 0 | 0.0 | 4.0 | 0.01 | 0.58 | 0.01 | 92 | 1008.7 |
| 20260903074556 | 57 | 178 | 1.0 | 6.0 | 0.01 | 0.58 | 0.01 | 91 | 1008.7 |
| 20260903073245 | 57 | 123 | 1.0 | 7.0 | 0.01 | 0.58 | 0.01 | 91 | 1008.6 |
| 20260903071552 | 57 | 163 | 1.0 | 5.0 | 0.00 | 0.57 | 0.00 | 90 | 1008.7 |
| 20260903070050 | 57 | 161 | 1.0 | 5.0 | 0.00 | 0.57 | 0.00 | 91 | 1008.6 |
| 20260903064552 | 57 | 173 | 0.0 | 4.0 | 0.00 | 0.57 | 0.57 | 91 | 1008.7 |
| 20260903063051 | 56 | 155 | 1.0 | 5.0 | 0.00 | 0.57 | 0.57 | 92 | 1008.7 |
| 20260903061547 | 56 | 0 | 0.0 | 1.0 | 0.00 | 0.57 | 0.57 | 92 | 1008.9 |
| 20260903060054 | 56 | 0 | 0.0 | 3.0 | 0.00 | 0.57 | 0.57 | 92 | 1008.8 |
| 20260903054555 | 56 | 0 | 0.0 | 2.0 | 0.00 | 0.57 | 0.57 | 91 | 1009.0 |
| 20260903053041 | 56 | 150 | 0.0 | 4.0 | 0.00 | 0.57 | 0.57 | 92 | 1009.0 |
| 20260903051551 | 56 | 0 | 0.0 | 2.0 | 0.00 | 0.57 | 0.57 | 92 | 1009.0 |
| 20260903050049 | 56 | 0 | 0.0 | 2.0 | 0.00 | 0.57 | 0.57 | 91 | 1009.0 |
| 20260903044548 | 56 | 101 | 0.0 | 1.0 | 0.00 | 0.57 | 0.57 | 90 | 1008.9 |
| 20260903043050 | 57 | 0 | 0.0 | 1.0 | 0.00 | 0.57 | 0.57 | 89 | 1008.9 |
| 20260903041551 | 57 | 0 | 0.0 | 1.0 | 0.00 | 0.57 | 0.57 | 89 | 1008.8 |
| 20260903040048 | 58 | 0 | 0.0 | 2.0 | 0.00 | 0.57 | 0.57 | 89 | 1008.8 |
| 20260903034543 | 58 | 0 | 1.0 | 5.0 | 0.00 | 0.57 | 0.57 | 89 | 1008.5 |
| 20260903033052 | 58 | 192 | 4.0 | 11.0 | 0.00 | 0.57 | 0.57 | 89 | 1008.5 |
| 20260903031551 | 58 | 176 | 2.0 | 9.0 | 0.00 | 0.57 | 0.57 | 89 | 1008.5 |
| 20260903030042 | 58 | 202 | 3.0 | 9.0 | 0.00 | 0.57 | 0.57 | 88 | 1008.3 |
| 20260903024548 | 59 | 171 | 5.0 | 12.0 | 0.00 | 0.57 | 0.57 | 87 | 1008.2 |
| 20260903023046 | 59 | 200 | 3.0 | 10.0 | 0.00 | 0.57 | 0.57 | 87 | 1008.2 |
| 20260903021545 | 59 | 189 | 4.0 | 11.0 | 0.00 | 0.57 | 0.57 | 86 | 1008.0 |
| 20260903014544 | 60 | 216 | 3.0 | 9.0 | 0.00 | 0.57 | 0.57 | 85 | 1008.0 |
| 20260903013049 | 61 | 190 | 3.0 | 9.0 | 0.00 | 0.57 | 0.57 | 83 | 1007.9 |
| 20260903011548 | 63 | 178 | 4.0 | 10.0 | 0.00 | 0.57 | 0.57 | 81 | 1007.8 |
| 20260903010047 | 63 | 205 | 4.0 | 9.0 | 0.00 | 0.57 | 0.57 | 82 | 1007.9 |
| 20260903004542 | 63 | 188 | 3.0 | 9.0 | 0.00 | 0.57 | 0.57 | 81 | 1007.8 |
| 20260903003049 | 63 | 219 | 3.0 | 9.0 | 0.00 | 0.57 | 0.57 | 82 | 1007.6 |
| 20260903001602 | 63 | 203 | 3.0 | 15.0 | 0.00 | 0.57 | 0.57 | 84 | 1007.7 |
| 20260903000056 | 62 | 126 | 4.0 | 9.0 | 0.00 | 0.57 | 0.57 | 85 | 1007.6 |
| 20260902234549 | 63 | 194 | 4.0 | 12.0 | 0.00 | 0.57 | 0.57 | 83 | 1007.4 |
| 20260902233055 | 64 | 238 | 2.0 | 12.0 | 0.00 | 0.57 | 0.57 | 82 | 1007.2 |
| 20260902231556 | 63 | 202 | 3.0 | 8.0 | 0.00 | 0.57 | 0.57 | 83 | 1007.0 |
| 20260902230051 | 63 | 217 | 2.0 | 8.0 | 0.00 | 0.57 | 0.57 | 84 | 1007.0 |
| 20260902224548 | 64 | 169 | 5.0 | 12.0 | 0.00 | 0.57 | 0.57 | 81 | 1006.8 |
| 20260902223054 | 63 | 188 | 4.0 | 11.0 | 0.00 | 0.57 | 0.57 | 85 | 1006.8 |
| 20260902221609 | 61 | 207 | 1.0 | 5.0 | 0.00 | 0.57 | 0.57 | 91 | 1006.6 |
| 20260902220053 | 60 | 165 | 3.0 | 9.0 | 0.00 | 0.57 | 0.57 | 92 | 1006.5 |
| 20260902214549 | 60 | 180 | 3.0 | 8.0 | 0.00 | 0.57 | 0.57 | 91 | 1006.4 |
| 20260902213053 | 60 | 185 | 2.0 | 9.0 | 0.01 | 0.57 | 0.57 | 90 | 1006.2 |
| 20260902211555 | 60 | 308 | 2.0 | 8.0 | 0.02 | 0.57 | 0.57 | 92 | 1006.1 |
| 20260902210051 | 60 | 168 | 1.0 | 7.0 | 0.03 | 0.57 | 0.57 | 95 | 1005.9 |
| 20260902204608 | 59 | 188 | 3.0 | 16.0 | 0.07 | 0.57 | 0.57 | 95 | 1005.8 |
| 20260902203050 | 58 | 190 | 5.0 | 19.0 | 0.12 | 0.56 | 0.56 | 95 | 1005.6 |
| 20260902201546 | 58 | 182 | 4.0 | 13.0 | 0.15 | 0.55 | 0.55 | 96 | 1005.3 |
| 20260902200048 | 58 | 177 | 4.0 | 13.0 | 0.16 | 0.54 | 0.54 | 96 | 1005.3 |
| 20260902194557 | 57 | 177 | 3.0 | 7.0 | 0.14 | 0.50 | 0.50 | 95 | 1005.1 |
| 20260902193055 | 58 | 144 | 2.0 | 6.0 | 0.10 | 0.44 | 0.44 | 95 | 1004.9 |
| 20260902191559 | 58 | 146 | 2.0 | 6.0 | 0.13 | 0.40 | 0.40 | 95 | 1004.8 |
| 20260902190051 | 57 | 142 | 0.0 | 8.0 | 0.13 | 0.38 | 0.38 | 94 | 1004.7 |
| 20260902184541 | 57 | 0 | 1.0 | 7.0 | 0.15 | 0.36 | 0.36 | 93 | 1004.6 |
| 20260902183129 | 58 | 178 | 1.0 | 12.0 | 0.16 | 0.34 | 0.34 | 93 | 1004.6 |
| 20260902181548 | 58 | 0 | 2.0 | 7.0 | 0.12 | 0.27 | 0.27 | 94 | 1004.5 |
| 20260902180047 | 58 | 145 | 1.0 | 10.0 | 0.11 | 0.25 | 0.25 | 94 | 1004.5 |
| 20260902174555 | 58 | 0 | 1.0 | 7.0 | 0.07 | 0.20 | 0.20 | 94 | 1004.5 |
| 20260902173055 | 58 | 76 | 1.0 | 4.0 | 0.07 | 0.18 | 0.18 | 95 | 1004.7 |
| 20260902171603 | 58 | 88 | 0.0 | 4.0 | 0.06 | 0.15 | 0.15 | 95 | 1005.0 |
| 20260902170054 | 58 | 0 | 0.0 | 5.0 | 0.06 | 0.14 | 0.14 | 95 | 1005.1 |
| 20260902164600 | 58 | 0 | 1.0 | 3.0 | 0.06 | 0.13 | 0.13 | 95 | 1005.4 |
| 20260902163046 | 58 | 0 | 0.0 | 1.0 | 0.06 | 0.11 | 0.11 | 94 | 1006.0 |
| 20260902161552 | 58 | 0 | 0.0 | 2.0 | 0.05 | 0.09 | 0.09 | 94 | 1006.0 |
| 20260902160055 | 58 | 0 | 0.0 | 2.0 | 0.05 | 0.08 | 0.08 | 94 | 1006.0 |
| 20260902154555 | 58 | 0 | 0.0 | 2.0 | 0.06 | 0.07 | 0.07 | 94 | 1006.1 |
| 20260902153053 | 58 | 0 | 0.0 | 4.0 | 0.04 | 0.05 | 0.05 | 93 | 1006.3 |
| 20260902151549 | 58 | 0 | 0.0 | 4.0 | 0.03 | 0.04 | 0.04 | 92 | 1006.3 |
| 20260902150052 | 58 | 159 | 0.0 | 2.0 | 0.02 | 0.03 | 0.03 | 92 | 1006.3 |
| 20260902144551 | 58 | 181 | 1.0 | 5.0 | 0.01 | 0.02 | 0.01 | 91 | 1006.6 |
| 20260902143051 | 58 | 0 | 0.0 | 5.0 | 0.01 | 0.02 | 0.01 | 91 | 1006.6 |
| 20260902141553 | 58 | 0 | 0.0 | 3.0 | 0.01 | 0.02 | 0.01 | 91 | 1006.7 |
| 20260902140047 | 58 | 159 | 0.0 | 6.0 | 0.01 | 0.02 | 0.01 | 89 | 1006.9 |
| 20260902134543 | 59 | 171 | 1.0 | 5.0 | 0.00 | 0.02 | 0.00 | 86 | 1007.2 |
| 20260902133051 | 60 | 167 | 3.0 | 12.0 | 0.00 | 0.02 | 0.00 | 83 | 1007.1 |
| 20260902131605 | 60 | 123 | 3.0 | 9.0 | 0.00 | 0.02 | 0.00 | 82 | 1006.9 |
| 20260902124551 | 60 | 0 | 0.0 | 4.0 | 0.00 | 0.02 | 0.00 | 84 | 1007.2 |
| 20260902123048 | 60 | 0 | 0.0 | 6.0 | 0.00 | 0.02 | 0.00 | 85 | 1007.4 |
| 20260902121546 | 59 | 0 | 0.0 | 2.0 | 0.00 | 0.02 | 0.00 | 86 | 1007.7 |
| 20260902120049 | 59 | 0 | 0.0 | 4.0 | 0.00 | 0.02 | 0.00 | 87 | 1008.0 |
| 20260902114607 | 59 | 0 | 0.0 | 1.0 | 0.00 | 0.02 | 0.00 | 87 | 1008.3 |
| 20260902113047 | 59 | 164 | 1.0 | 5.0 | 0.00 | 0.02 | 0.00 | 87 | 1008.6 |
| 20260902111551 | 59 | 161 | 2.0 | 7.0 | 0.00 | 0.02 | 0.00 | 88 | 1008.9 |
| 20260902110100 | 59 | 0 | 0.0 | 5.0 | 0.00 | 0.02 | 0.00 | 90 | 1009.2 |
| 20260902104548 | 59 | 187 | 0.0 | 4.0 | 0.00 | 0.02 | 0.00 | 90 | 1009.3 |
| 20260902103050 | 58 | 0 | 0.0 | 5.0 | 0.00 | 0.02 | 0.00 | 91 | 1009.3 |
| 20260902101551 | 58 | 171 | 1.0 | 6.0 | 0.00 | 0.02 | 0.00 | 91 | 1009.5 |
| 20260902100050 | 59 | 169 | 3.0 | 9.0 | 0.00 | 0.02 | 0.00 | 90 | 1009.6 |